If you wish to contribute or participate in the discussions about articles you are invited to join SKYbrary as a registered user

 Actions

Badajoz Airport

From SKYbrary Wiki

LEBZ
Airport
ICAO: LEBZ – IATA: BJZ
Summary
Name Badajoz Airport
Region Europe
Territory Spain ES.gif
Location , Extremadura
Serving Badajoz
Elevation 185.623 m
609 ft
609 ft185.623 m
Type medium airport
Coordinates 38° 53' 28.50" N, 6° 49' 16.80" W
Runways
Designator Length Width Surface ROPS
13/31 2850 m9,350.394 ft
60 m196.85 ft
ASP yes/yes


METAR
Observation LEBZ 211200Z 02002KT 9999 FEW035 15/10 Q1018
Station Badajoz / Talavera La Real
Date/Time 21 October 2019 12:00:00
Wind direction 20°
Wind speed 02 kts
Lowest cloud amount few clouds
Temperature 15°C
Dew point 10°C
Humidity 72%
QNH 1018 hPa
Weather condition n/a